User: anonymous   Login
Location: Pine Mountain Observatory
(43.7910°N, 120.9377°W)
Time: 05:15:15
(UTC-07:00)
Language:

IDEFIX/ARIANE 42P - Orbit

View from above orbital plane
View from above orbital plane
View from above satellite
View from above satellite

Ground track
Ground track

The orbit data is extracted from the following two-line orbital elements,

1 27422U 02021B   14294.12742285  .00000313  00000-0  13986-3 0  6245
2 27422 098.2862 330.5431 0011811 226.3487 197.2890 14.29066417648124
Epoch (UTC): 21 October 2014 03:03:29
Eccentricity: 0.0011811
inclination: 98.2862°
perigee height: 786 km
apogee height: 803 km
right ascension of ascending node: 330.5431°
argument of perigee: 226.3487°
revolutions per day: 14.29066417
mean anomaly at epoch: 197.2890°
orbit number at epoch: 64812

The dashed part of the orbit path shows where the satellite is in the earth's shadow,  

DLR